{"data":{"norad_id":49133,"epoch":"2026-09-19T23:51:06.088608Z","epoch_age_seconds":84985,"freshness":"FRESH","line1":"1 49133U 21082D   26262.99382047  .00000266  00000+0  30119-4 0  9994","line2":"2 49133  69.9993 164.5466 0002879 269.1679  90.9150 14.98332878275084","mean_motion":14.98332878,"eccentricity":0.0002879,"inclination_deg":69.9993,"raan_deg":164.5466,"arg_perigee_deg":269.1679,"mean_anomaly_deg":90.915,"bstar":3.0119e-5,"rev_number":27508,"period_min":96.106814523228,"perigee_km":570.04603301007,"apogee_km":574.04794895207,"semimajor_km":6950.1839909811,"source":"CELESTRAK","updated_at":"2026-09-20T09:00:39.247010Z"}}